sat.trackr.live / text

‹ back to catalog

NIMIQ 5

NORAD 35873 · 2009-050A

PAYLOAD ACTIVE UNKNOWN

§ Identity

Operator
Country
CA
Launch date
2009-09-17
Launch site
TYMSC
Launch vehicle
Mass (kg)
RCS (m²)
94.72

Purposes: comms

External: N2YO · Heavens-Above · Gunter

§ Orbital elements

Epoch: 2026-09-19T07:16:50.164032Z

Period
1,436.11 min
Inclination
0.0176°
Eccentricity
0.0002753
Mean motion
1.00270826 rev/d
Perigee alt
35,775.3 km
Apogee alt
35,798.5 km
Semi-major
42,165.0 km
B*
0.0000e+0
RAAN
198.6538°
Arg perigee
337.5624°
Mean anomaly
218.5062°
Rev number
6,228

§ Raw data

NIMIQ 51 35873U 09050A   26262.30335838 -.00000261  00000+0  00000+0 0  99992 35873   0.0176 198.6538 0002753 337.5624 218.5062  1.00270826 62287

JSON: /api/v1/satellites/35873 · /tle

For live sub-satellite position, see the globe view (requires WebGL).

§ Visibility from observer

Set your observer location to see the next 7 days of passes ≥ 10°. The values pass through the URL so the page stays shareable.

No JS? Fill the form by hand. The geolocation button needs JavaScript.